Time,TemperatureF,DewpointF,PressureIn,WindDirection,WindDirectionDegrees,WindSpeedMPH,WindSpeedGustMPH,Humidity,HourlyPrecipIn,Conditions,Clouds,dailyrainin,SolarRadiationWatts/m^2,SoftwareType,DateUTC
2013-08-11 00:08:00,65.2,57.0,30.10,WNW,284,0.0,0.0,74,0.00,,,0.00,0,weatherlink.com 1.10,2013-08-11 04:08:00,
2013-08-11 00:23:00,65.1,57.0,30.10,WNW,284,0.0,0.0,75,0.00,,,0.00,0,weatherlink.com 1.10,2013-08-11 04:23:00,
2013-08-11 00:38:00,65.0,57.0,30.09,WNW,284,0.0,0.0,75,0.00,,,0.00,0,weatherlink.com 1.10,2013-08-11 04:38:00,
2013-08-11 00:53:00,64.9,57.0,30.09,WNW,284,0.0,0.0,75,0.00,,,0.00,0,weatherlink.com 1.10,2013-08-11 04:53:00,
2013-08-11 01:08:00,64.8,57.0,30.09,WNW,284,0.0,0.0,76,0.00,,,0.00,0,weatherlink.com 1.10,2013-08-11 05:08:00,
2013-08-11 01:38:00,63.8,56.0,30.09,WNW,284,0.0,0.0,77,0.00,,,0.00,0,weatherlink.com 1.10,2013-08-11 05:38:00,
2013-08-11 01:53:00,63.1,56.0,30.09,WNW,284,0.0,0.0,78,0.00,,,0.00,0,weatherlink.com 1.10,2013-08-11 05:53:00,
2013-08-11 02:08:00,62.6,56.0,30.10,WNW,284,0.0,0.0,79,0.00,,,0.00,0,weatherlink.com 1.10,2013-08-11 06:08:00,
2013-08-11 02:23:00,62.4,56.0,30.10,WNW,284,0.0,0.0,80,0.00,,,0.00,0,weatherlink.com 1.10,2013-08-11 06:23:00,
2013-08-11 02:38:00,62.3,56.0,30.10,WNW,284,0.0,0.0,81,0.00,,,0.00,0,weatherlink.com 1.10,2013-08-11 06:38:00,
2013-08-11 02:53:00,62.3,56.0,30.10,WNW,284,0.0,0.0,81,0.00,,,0.00,0,weatherlink.com 1.10,2013-08-11 06:53:00,
2013-08-11 03:08:00,62.2,56.0,30.10,WNW,284,0.0,0.0,81,0.00,,,0.00,0,weatherlink.com 1.10,2013-08-11 07:08:00,
2013-08-11 03:23:00,62.1,57.0,30.11,WNW,284,0.0,0.0,82,0.00,,,0.00,0,weatherlink.com 1.10,2013-08-11 07:23:00,
2013-08-11 03:38:00,62.0,56.0,30.11,WNW,284,0.0,0.0,82,0.00,,,0.00,0,weatherlink.com 1.10,2013-08-11 07:38:00,
2013-08-11 03:53:00,61.9,56.0,30.10,WNW,284,0.0,0.0,82,0.00,,,0.00,0,weatherlink.com 1.10,2013-08-11 07:53:00,
2013-08-11 04:38:00,61.8,57.0,30.10,WNW,284,0.0,0.0,83,0.00,,,0.00,0,weatherlink.com 1.10,2013-08-11 08:38:00,
2013-08-11 04:53:00,61.9,57.0,30.10,WNW,284,0.0,0.0,84,0.00,,,0.00,0,weatherlink.com 1.10,2013-08-11 08:53:00,
2013-08-11 05:08:00,62.1,57.0,30.10,WNW,284,0.0,0.0,84,0.00,,,0.00,0,weatherlink.com 1.10,2013-08-11 09:08:00,
2013-08-11 05:38:00,62.3,57.0,30.10,WNW,284,0.0,0.0,84,0.00,,,0.00,0,weatherlink.com 1.10,2013-08-11 09:38:00,
2013-08-11 05:53:00,62.3,57.0,30.10,WNW,284,0.0,0.0,84,0.00,,,0.00,0,weatherlink.com 1.10,2013-08-11 09:53:00,
2013-08-11 06:38:00,61.8,57.0,30.11,WNW,284,0.0,0.0,83,0.00,,,0.00,0,weatherlink.com 1.10,2013-08-11 10:38:00,
2013-08-11 06:53:00,61.3,56.0,30.10,WNW,284,0.0,0.0,83,0.00,,,0.00,7,weatherlink.com 1.10,2013-08-11 10:53:00,
2013-08-11 07:08:00,60.7,56.0,30.10,WNW,284,0.0,0.0,83,0.00,,,0.00,12,weatherlink.com 1.10,2013-08-11 11:08:00,
2013-08-11 07:23:00,60.1,55.0,30.10,WNW,284,0.0,0.0,84,0.00,,,0.00,19,weatherlink.com 1.10,2013-08-11 11:23:00,
2013-08-11 07:53:00,59.7,56.0,30.10,WNW,284,0.0,0.0,86,0.00,,,0.00,128,weatherlink.com 1.10,2013-08-11 11:53:00,
2013-08-11 08:09:00,60.4,57.0,30.11,WNW,284,0.0,0.0,87,0.00,,,0.00,172,weatherlink.com 1.10,2013-08-11 12:09:00,
2013-08-11 08:24:00,62.5,58.0,30.11,WNW,284,0.0,0.0,86,0.00,,,0.00,230,weatherlink.com 1.10,2013-08-11 12:24:00,
2013-08-11 08:54:00,66.9,59.0,30.11,WNW,284,0.0,0.0,76,0.00,,,0.00,325,weatherlink.com 1.10,2013-08-11 12:54:00,
2013-08-11 09:09:00,68.9,58.0,30.11,WNW,284,0.0,0.0,69,0.00,,,0.00,371,weatherlink.com 1.10,2013-08-11 13:09:00,
2013-08-11 09:24:00,70.8,58.0,30.11,WNW,284,0.0,0.0,64,0.00,,,0.00,417,weatherlink.com 1.10,2013-08-11 13:24:00,
2013-08-11 09:54:00,72.7,56.0,30.11,WNW,284,0.0,2.0,56,0.00,,,0.00,504,weatherlink.com 1.10,2013-08-11 13:54:00,
2013-08-11 10:09:00,72.5,55.0,30.11,WNW,284,0.0,3.0,54,0.00,,,0.00,547,weatherlink.com 1.10,2013-08-11 14:09:00,
2013-08-11 10:54:00,75.2,56.0,30.11,West,268,0.0,2.0,51,0.00,,,0.00,664,weatherlink.com 1.10,2013-08-11 14:54:00,
2013-08-11 11:24:00,74.4,56.0,30.10,West,272,0.0,4.0,52,0.00,,,0.00,826,weatherlink.com 1.10,2013-08-11 15:24:00,
2013-08-11 11:39:00,74.9,55.0,30.10,NNW,346,0.0,1.0,51,0.00,,,0.00,125,weatherlink.com 1.10,2013-08-11 15:39:00,
2013-08-11 11:54:00,74.9,55.0,30.10,WSW,253,6.0,7.0,51,0.00,,,0.00,918,weatherlink.com 1.10,2013-08-11 15:54:00,
2013-08-11 12:24:00,75.3,56.0,30.10,West,274,2.0,6.0,52,0.00,,,0.00,329,weatherlink.com 1.10,2013-08-11 16:24:00,
2013-08-11 12:39:00,75.4,56.0,30.09,West,271,0.0,5.0,51,0.00,,,0.00,429,weatherlink.com 1.10,2013-08-11 16:39:00,
2013-08-11 12:55:00,76.7,57.0,30.09,West,265,1.0,6.0,50,0.00,,,0.00,1088,weatherlink.com 1.10,2013-08-11 16:55:00,
2013-08-11 13:10:00,76.4,56.0,30.10,WSW,258,2.0,7.0,49,0.00,,,0.00,320,weatherlink.com 1.10,2013-08-11 17:10:00,
2013-08-11 13:25:00,76.0,56.0,30.10,WSW,254,5.0,8.0,51,0.00,,,0.00,471,weatherlink.com 1.10,2013-08-11 17:25:00,
2013-08-11 13:40:00,77.0,57.0,30.10,West,267,1.0,8.0,50,0.00,,,0.00,1211,weatherlink.com 1.10,2013-08-11 17:40:00,
2013-08-11 13:55:00,76.9,57.0,30.09,West,273,0.0,6.0,50,0.00,,,0.00,306,weatherlink.com 1.10,2013-08-11 17:55:00,
2013-08-11 14:10:00,77.2,56.0,30.09,WSW,257,3.0,6.0,49,0.00,,,0.00,329,weatherlink.com 1.10,2013-08-11 18:10:00,
2013-08-11 14:25:00,76.9,57.0,30.08,West,264,3.0,10.0,51,0.00,,,0.00,647,weatherlink.com 1.10,2013-08-11 18:25:00,
2013-08-11 14:40:00,77.1,56.0,30.08,WSW,257,0.0,9.0,49,0.00,,,0.00,438,weatherlink.com 1.10,2013-08-11 18:40:00,
2013-08-11 14:55:00,76.6,57.0,30.09,West,261,1.0,9.0,50,0.00,,,0.00,345,weatherlink.com 1.10,2013-08-11 18:55:00,
2013-08-11 15:10:00,76.1,57.0,30.08,WNW,290,0.0,8.0,52,0.00,,,0.00,265,weatherlink.com 1.10,2013-08-11 19:10:00,
2013-08-11 15:25:00,75.9,57.0,30.07,West,278,1.0,6.0,53,0.00,,,0.00,513,weatherlink.com 1.10,2013-08-11 19:25:00,
2013-08-11 15:55:00,75.8,58.0,30.07,WSW,254,6.0,8.0,54,0.00,,,0.00,265,weatherlink.com 1.10,2013-08-11 19:55:00,
2013-08-11 16:10:00,74.9,58.0,30.06,WNW,292,3.0,5.0,55,0.00,,,0.00,141,weatherlink.com 1.10,2013-08-11 20:10:00,
2013-08-11 16:40:00,73.5,57.0,30.05,West,270,3.0,5.0,56,0.00,,,0.00,153,weatherlink.com 1.10,2013-08-11 20:40:00,
2013-08-11 16:55:00,73.0,56.0,30.06,West,276,0.0,6.0,56,0.00,,,0.00,63,weatherlink.com 1.10,2013-08-11 20:55:00,
2013-08-11 17:10:00,72.6,56.0,30.06,West,278,3.0,6.0,56,0.00,,,0.00,77,weatherlink.com 1.10,2013-08-11 21:10:00,
2013-08-11 17:25:00,72.2,56.0,30.07,WSW,249,7.0,7.0,58,0.00,,,0.00,65,weatherlink.com 1.10,2013-08-11 21:25:00,
2013-08-11 17:40:00,71.9,56.0,30.06,WSW,242,0.0,6.0,58,0.00,,,0.00,123,weatherlink.com 1.10,2013-08-11 21:40:00,
2013-08-11 17:55:00,71.7,55.0,30.05,WSW,253,6.0,10.0,57,0.00,,,0.00,121,weatherlink.com 1.10,2013-08-11 21:55:00,
2013-08-11 18:10:00,71.2,56.0,30.05,West,269,5.0,7.0,58,0.00,,,0.00,107,weatherlink.com 1.10,2013-08-11 22:10:00,
2013-08-11 18:25:00,70.6,55.0,30.05,West,279,0.0,8.0,59,0.00,,,0.00,49,weatherlink.com 1.10,2013-08-11 22:25:00,
2013-08-11 18:55:00,70.3,56.0,30.04,West,272,0.0,5.0,61,0.00,,,0.00,67,weatherlink.com 1.10,2013-08-11 22:55:00,
2013-08-11 19:25:00,70.1,56.0,30.04,West,272,0.0,3.0,62,0.00,,,0.00,39,weatherlink.com 1.10,2013-08-11 23:25:00,
2013-08-11 19:55:00,70.0,57.0,30.04,West,272,0.0,1.0,64,0.00,,,0.00,11,weatherlink.com 1.10,2013-08-11 23:55:00,
2013-08-11 20:10:00,69.8,57.0,30.04,West,272,0.0,0.0,64,0.00,,,0.00,5,weatherlink.com 1.10,2013-08-12 00:10:00,
2013-08-11 20:25:00,69.7,57.0,30.04,West,272,0.0,0.0,65,0.00,,,0.00,0,weatherlink.com 1.10,2013-08-12 00:25:00,
2013-08-11 20:40:00,69.5,58.0,30.03,West,272,0.0,0.0,66,0.00,,,0.00,0,weatherlink.com 1.10,2013-08-12 00:40:00,
2013-08-11 20:55:00,69.3,57.0,30.03,West,272,0.0,0.0,66,0.00,,,0.00,9,weatherlink.com 1.10,2013-08-12 00:55:00,
2013-08-11 21:10:00,69.1,58.0,30.03,West,272,0.0,0.0,67,0.00,,,0.00,12,weatherlink.com 1.10,2013-08-12 01:10:00,
2013-08-11 21:25:00,69.0,58.0,30.03,West,272,0.0,0.0,67,0.00,,,0.00,0,weatherlink.com 1.10,2013-08-12 01:25:00,
2013-08-11 21:40:00,68.8,58.0,30.04,West,272,0.0,0.0,68,0.00,,,0.00,0,weatherlink.com 1.10,2013-08-12 01:40:00,
2013-08-11 21:55:00,68.7,58.0,30.04,West,272,0.0,0.0,69,0.00,,,0.00,0,weatherlink.com 1.10,2013-08-12 01:55:00,
2013-08-11 22:10:00,68.4,58.0,30.05,West,272,0.0,0.0,70,0.00,,,0.00,0,weatherlink.com 1.10,2013-08-12 02:10:00,
2013-08-11 22:40:00,67.9,58.0,30.04,West,272,0.0,0.0,71,0.00,,,0.00,0,weatherlink.com 1.10,2013-08-12 02:40:00,
2013-08-11 22:55:00,67.8,58.0,30.04,West,272,0.0,0.0,72,0.00,,,0.00,0,weatherlink.com 1.10,2013-08-12 02:55:00,
2013-08-11 23:10:00,67.7,58.0,30.04,West,272,0.0,0.0,72,0.00,,,0.00,0,weatherlink.com 1.10,2013-08-12 03:10:00,
2013-08-11 23:25:00,67.5,58.0,30.04,West,272,0.0,0.0,72,0.00,,,0.00,0,weatherlink.com 1.10,2013-08-12 03:25:00,
2013-08-11 23:40:00,67.3,58.0,30.03,West,272,0.0,0.0,73,0.00,,,0.00,0,weatherlink.com 1.10,2013-08-12 03:40:00,
2013-08-11 23:55:00,67.1,59.0,30.03,West,272,0.0,0.0,74,0.00,,,0.00,0,weatherlink.com 1.10,2013-08-12 03:55:00,